Flight Track Log - Related Links

Times and Time Zones

All times are in EST time to prevent confusion due to time zone crossing. See the SWA1482 flight status page for this flight to view local times or setup timezone preferences in your user account.


Time Position Orientation Groundspeed Altitude Reporting Facility
EST Latitude Longitude Course Direction KTS MPH feet Rate Location/Type
Sat 11:08:20 AM 37.7322 -122.2603 311° West 151 174 1,400  Level Oakland Center
Sat 11:09:22 AM 37.7681 -122.3133 311° West 192 221 4,100 2,976 Climbing Oakland Center
Sat 11:10:23 AM 37.7717 -122.3789 274° West 215 247 7,500 2,902 Climbing Oakland Center
Sat 11:11:24 AM 37.7450 -122.4511 245° Southwest 225 259 10,000 1,180 Climbing Oakland Center
Sat 11:12:25 AM 37.7117 -122.5394 245° Southwest 268 308 9,900 246 Descending Oakland Center
Sat 11:13:26 AM 37.6475 -122.5894 212° Southwest 297 342 10,500 2,164 Climbing Oakland Center
Sat 11:14:27 AM 37.5589 -122.5875 179° South 317 365 14,300 3,443 Climbing Oakland Center
Sat 11:15:28 AM 37.4608 -122.5850 179° South 349 402 17,500 3,148 Climbing Oakland Center
Sat 11:16:29 AM 37.3569 -122.5825 179° South 369 425 20,700 3,122 Climbing Oakland Center
Sat 11:17:31 AM 37.2272 -122.5786 179° South 388 447 23,900 2,634 Climbing Oakland Center
Sat 11:18:32 AM 37.1125 -122.5653 175° South 415 478 26,100 1,967 Climbing Oakland Center
Sat 11:19:33 AM 37.0117 -122.4736 144° Southeast 445 512 27,900 1,770 Climbing Oakland Center
Sat 11:20:34 AM 36.9078 -122.3781 144° Southeast 462 532 29,700 1,721 Climbing Oakland Center
Sat 11:21:35 AM 36.7983 -122.2786 144° Southeast 482 555 31,400 1,512 Climbing Oakland Center
Sat 11:22:37 AM 36.6858 -122.1739 143° Southeast 503 579 32,800 1,659 Climbing Oakland Center
Sat 11:23:38 AM 36.5714 -122.0667 143° Southeast 514 592 34,800 1,770 Climbing Oakland Center
Sat 11:24:39 AM 36.4561 -121.9628 144° Southeast 514 592 36,400 1,525 Climbing Oakland Center
Sat 11:25:40 AM 36.3411 -121.8572 144° Southeast 516 594 37,900 1,525 Climbing Oakland Center
Sat 11:26:41 AM 36.2111 -121.7406 144° Southeast 512 589 39,500 1,317 Climbing Oakland Center
Sat 11:27:43 AM 36.0958 -121.6375 144° Southeast 512 589 40,600 732 Climbing Oakland Center
Sat 11:28:44 AM 35.9817 -121.5344 144° Southeast 511 588 41,000 197 Climbing Oakland Center
Sat 11:29:45 AM 35.8661 -121.4311 144° Southeast 513 590 41,000  Level Oakland Center
Sat 11:30:46 AM 35.7528 -121.3281 144° Southeast 510 587 41,000  Level Oakland Center
Sat 11:31:47 AM 35.6364 -121.2250 144° Southeast 515 593 41,000  Level Oakland Center
Sat 11:32:49 AM 35.4983 -121.1025 144° Southeast 513 590 41,000  Level Oakland Center
Sat 11:33:50 AM 35.3792 -121.0089 147° Southeast 512 589 41,000  Level Oakland Center
Sat 11:34:51 AM 35.2606 -120.9158 147° Southeast 511 588 41,000  Level Oakland Center
Sat 11:35:52 AM 35.1569 -120.8344 147° Southeast 514 592 41,000  Level Oakland Center
Sat 11:37:13 AM 34.9861 -120.7058 148° Southeast 516 594 41,000  Level Los Angeles Center
Sat 11:38:15 AM 34.8664 -120.6100 147° Southeast 513 590 41,000  Level Los Angeles Center
Sat 11:39:17 AM 34.7331 -120.5064 147° Southeast 516 594 41,000 -532 Level Los Angeles Center
Sat 11:40:19 AM 34.6117 -120.4114 147° Southeast 521 600 39,900 -1,887 Descending Los Angeles Center
Sat 11:41:21 AM 34.4908 -120.3222 149° Southeast 512 589 37,100 -2,468 Descending Los Angeles Center
Sat 11:42:23 AM 34.3450 -120.2078 147° Southeast 522 601 34,800 -2,177 Descending Los Angeles Center
Sat 11:43:25 AM 34.2361 -120.1033 142° Southeast 503 579 32,600 -2,129 Descending Los Angeles Center
Sat 11:44:27 AM 34.1661 -119.9669 122° Southeast 481 554 30,400 -2,129 Descending Los Angeles Center
Sat 11:45:29 AM 34.0992 -119.8353 122° Southeast 466 536 28,200 -2,081 Descending Los Angeles Center
Sat 11:46:31 AM 34.0356 -119.7081 121° Southeast 449 517 26,100 -2,032 Descending Los Angeles Center
Sat 11:47:33 AM 33.9733 -119.5861 122° Southeast 431 496 24,000 -2,129 Descending Los Angeles Center
Sat 11:48:35 AM 33.9028 -119.4458 121° Southeast 412 474 21,700 -1,968 Descending Los Angeles Center
Sat 11:49:38 AM 33.8478 -119.3342 121° Southeast 388 447 19,900 -1,728 Descending Los Angeles Center
Sat 11:50:40 AM 33.7936 -119.2281 122° Southeast 374 430 18,100 -1,790 Descending Los Angeles Center
Sat 11:51:42 AM 33.7411 -119.1253 122° Southeast 361 415 16,200 -1,839 Descending Los Angeles Center
Sat 11:52:44 AM 33.6892 -119.0267 122° Southeast 353 406 14,300 -1,935 Descending Los Angeles Center
Sat 11:53:46 AM 33.6319 -118.9133 121° Southeast 334 384 12,200 -1,742 Descending Los Angeles Center
Sat 11:54:48 AM 33.5908 -118.8206 118° Southeast 323 372 10,700 -1,210 Descending Los Angeles Center
Sat 11:55:50 AM 33.5675 -118.7228 106° East 311 358 9,700 -968 Descending Los Angeles Center
Sat 11:56:52 AM 33.5436 -118.6281 107° East 302 348 8,700 -968 Descending Los Angeles Center
Sat 11:57:54 AM 33.5211 -118.5386 107° East 288 331 7,700 -1,065 Descending Los Angeles Center
Sat 11:58:56 AM 33.5000 -118.4353 104° East 273 314 6,500 -823 Descending Los Angeles Center
Sat 11:59:58 AM 33.5022 -118.3525 88° East 256 295 6,000 -677 Descending Los Angeles Center
Sat 12:01:00 PM 33.5014 -118.2725 91° East 249 287 5,100 -432 Descending Los Angeles Center
Sat 12:02:03 PM 33.5031 -118.1925 89° East 245 282 5,100 -672 Level Los Angeles Center
Sat 12:03:05 PM 33.5036 -118.1114 90° East 245 282 3,700 -1,355 Descending Los Angeles Center
Sat 12:04:07 PM 33.5039 -118.0144 90° East 245 282 2,300 -774 Descending Los Angeles Center
Sat 12:05:09 PM 33.5256 -117.9633 63° Northeast 219 252 2,100 -242 Descending Los Angeles Center
Sat 12:06:11 PM 33.5656 -117.9372 29° Northeast 182 209 1,800 -194 Descending Los Angeles Center
Sat 12:07:13 PM 33.5972 -117.9181 27° Northeast 143 165 1,700 -450 Descending Los Angeles Center
Sat 12:08:11 PM 33.6333 -117.9000 23° Northeast 124 143 900 -756 Descending Southern California TRACON
Sat 12:09:12 PM 33.6667 -117.8833 23° Northeast 130 150 200 -689 Descending Southern California TRACON
Sat 12:12:00 PM 33.6667 -117.8667 132° Southeast  Level FlightAware Approximate

Login

Don't have an account? Register now (free) for customized features, flight alerts, and more!